STARLINK-2720, 48653

Orbit data source: Space-Track

STARLINK-2720, 48653 is a payload satellite owned by SpaceX/Seattle (US) in LEO that was launched on Wed, 26 May 2021 UTC via an FALCON 9 launch vehicle from the Air Force Eastern Test Range (AFETR). Payload-class satellites include a variety of spacecraft equipped with specific instruments for various scientific and technological missions. These include communications satellites like Starlink; space stations such as the ISS; scientific satellites like the Hubble; Earth observation satellites from companies like Planet Labs, Umbra, and HawkEye 360; GPS; miniature CubeSats for education and research; and military/defense satellites.

Loading next visibility...
Identifier
48653, 2021-044R
Orbit
LEO
Country
Flag of USUS
Related business
Manufacturer
SpaceX/Seattle
Mission
Operational Commercial Communications
Bus & Motor
STARLINK, Unknown motor
Mass
260 kg wet, ~248 kg dry
Launch date (UTC)
2021-05-26 (5 years ago)
Launch vehicle
FALCON 9
Launch site
Air Force Eastern Test Range (AFETR)
Object type
Payload
Rocket body
Debris
Shape & HBR
Box + 1 Pan, 10.1 m
Radar Cross Section
13.562 m², Large (>1 m²)

Expand to show TLE details & history
Last TLE update: 3 days ago

TLE from 3 days ago
0 STARLINK-2720
1 48653U 21044R   26170.83825880  .00000031  00000-0  12753-4 0  9991
2 48653  53.1608 358.6566 0000831  82.1878 277.9218 15.31698978279478
Epoch: 2026-06-19T20:07Z
TLE epoch observation values (Epoch: 2026-06-19T20:07:05.560Z)
Latitude
0.00001°
Longitude
148.82195°
Altitude
471.565 km
Speed
7.632 km/s
True Right ascension
23h 54m 37s
True Declination
0° 00' 00"
Sunlit
Object was in daylight at epoch
Visualization orbit readout
Latitude
Unknown
Longitude
Unknown
Altitude
Unknown
Speed
Unknown
Apparent Right ascension
Unknown
Apparent Declination
Unknown
Sunlit
N/A
Visualization observer readout
Local Sidereal Time
00:50:58
Azimuth
Unknown
Elevation
Unknown
Doppler factor
Unknown
Orbital elements
Apogee altitude
471.569 km
Perigee altitude
470.43 km
Semi-major axis
6,849.137 km
Eccentricity
0.00008
Inclination
53.1608°
RAAN
358.6566°
Arg. of periapsis
82.1878°
True anomaly
277.91237°
Mean anomaly
277.9218°
Eccentric anomaly
277.91708°
Mean motion
3.82904 °/min
Orbital period
94.02 mins
BSTAR
0.000012753
Loading maneuver chart data...
Computing Atmospheric mass density...

Documentation

Showing up to 5 results
|